Thursday, September 20, 2018, 6:17 PM EDT
Back to Local

KHVN, Tweed-new Haven Airport

Location: East Haven, CT, United States Lat: 41.267
Local Time: 6:17 PM EDT (22:17 GMT) Lon: -72.883
Time Zone: US/Eastern Elev: 13 ft

Show me the last for .
Show Decoded

2018-09-20 17:53 METAR KHVN 202153Z 17003KT 10SM SCT040 BKN050 21/15 A3023 RMK AO2 SLP236
                 T02110150 =
2018-09-20 16:53 METAR KHVN 202053Z 17007KT 10SM SCT040 BKN050 22/16 A3022 RMK AO2 SLP233
                 T02170156 55004 =
2018-09-20 15:53 METAR KHVN 201953Z 18007KT 10SM SCT040 BKN050 22/15 A3022 RMK AO2 SLP231
                 T02170150 =
2018-09-20 14:53 METAR KHVN 201853Z 17007KT 10SM SCT039 BKN050 22/15 A3022 RMK AO2 SLP232
                 T02220150 =
2018-09-20 13:53 METAR KHVN 201753Z 18007KT 10SM OVC032 22/16 A3023 RMK AO2 SLP237 T02170156
                 10233 20172 58005 =
2018-09-20 12:53 METAR KHVN 201653Z 36005KT 10SM SCT025 BKN055 22/15 A3024 RMK AO2 SLP239
                 T02220150 =
2018-09-20 11:53 METAR KHVN 201553Z 01007KT 10SM BKN055 21/14 A3025 RMK AO2 SLP243 T02110139 =
2018-09-20 10:53 METAR KHVN 201453Z 01006KT 10SM OVC055 20/13 A3025 RMK AO2 SLP242 T02000133
                 53018 =
2018-09-20 09:53 METAR KHVN 201353Z 36008KT 10SM BKN055 19/13 A3023 RMK AO2 SLP236 T01890133 $ =
2018-09-20 08:53 METAR KHVN 201253Z 01008KT 10SM OVC055 18/13 A3022 RMK AO2 SLP231 T01780133 $ =
2018-09-20 07:53 METAR KHVN 201153Z 01006KT 10SM OVC055 17/13 A3020 RMK AO2 SLP225 T01720133
                 10172 20167 53023 $ =
2018-09-20 06:53 METAR KHVN 201053Z 02004KT 10SM OVC055 17/13 A3017 RMK AO2 SLP215 T01670133 $ =
2018-09-20 05:53 METAR KHVN 200953Z 03004KT 10SM SCT036 BKN043 BKN060 17/13 A3015 RMK AO2 SLP210
                 T01720128 $ =
2018-09-20 04:53 METAR KHVN 200853Z AUTO 03006KT 10SM FEW043 OVC060 17/13 A3013 RMK AO2 SLP202
                 T01720128 51008 $ =
2018-09-20 03:53 METAR KHVN 200753Z AUTO 02006KT 10SM BKN041 OVC060 17/13 A3012 RMK AO2 SLP200
                 T01720133 $ =
2018-09-20 02:53 METAR KHVN 200653Z AUTO 06007KT 10SM SCT030 OVC060 17/13 A3011 RMK AO2 SLP196
                 T01720133 $ =
2018-09-20 02:04 METAR KHVN 200604Z AUTO 05005KT 10SM SCT023 OVC060 17/13 A3011 RMK AO2 T01720133
                 $ =
2018-09-20 01:53 METAR KHVN 200553Z AUTO 05007KT 10SM BKN022 OVC060 17/14 A3010 RMK AO2 SLP194
                 T01720139 10206 20172 51007 $ =
2018-09-20 01:22 METAR KHVN 200522Z AUTO 06005KT 10SM BKN022 OVC038 18/14 A3010 RMK AO2 T01780139
                 $ =
2018-09-20 00:53 METAR KHVN 200453Z AUTO 08008KT 10SM OVC036 18/14 A3010 RMK AO2 SLP192 T01780139
                 402670178 $ =
2018-09-20 00:31 METAR KHVN 200431Z AUTO 06005KT 10SM SCT024 OVC034 18/14 A3010 RMK AO2 T01830139
                 $ =
2018-09-19 23:53 METAR KHVN 200353Z AUTO 08004KT 10SM OVC029 18/14 A3010 RMK AO2 SLP192 T01830144
                 $ =
2018-09-19 22:53 METAR KHVN 200253Z AUTO 04006KT 10SM BKN016 OVC029 19/15 A3008 RMK AO2 SLP187
                 T01890150 51027 $ =
2018-09-19 22:00 METAR KHVN 200200Z 06005KT 10SM BKN016 OVC029 19/16 A3007 RMK AO2 T01890156 $ =
2018-09-19 21:53 METAR KHVN 200153Z 06005KT 10SM BKN013 OVC029 19/16 A3006 RMK AO2 SLP180
                 T01890156 $ =
2018-09-19 21:12 METAR KHVN 200112Z 06007KT 10SM BKN013 OVC029 19/17 A3005 RMK AO2 T01940167 $ =
2018-09-19 20:53 METAR KHVN 200053Z 08006KT 10SM FEW016 BKN029 OVC036 19/16 A3004 RMK AO2 SLP172
                 T01940161 $ =
2018-09-19 19:53 METAR KHVN 192353Z 07009KT 10SM OVC026 21/17 A3000 RMK AO2 SLP159 T02060167
                 10256 20206 51027 $ =
2018-09-19 19:31 METAR KHVN 192331Z 09006KT 10SM BKN028 BKN034 BKN042 21/17 A2999 RMK AO2
                 T02110172 $ =
2018-09-19 18:53 METAR KHVN 192253Z 08008KT 10SM SCT024 BKN033 BKN045 22/18 A2998 RMK AO2 SLP150
                 T02220178 $ =

Support USWX by starting your Amazon purchase here.